Location: Dover
(39.1580°N, 75.5250°W)
Time: 17:39:15
(UTC-04:00)

ISS - All Passes

Search period start: 23 April 2017 00:00
Search period end: 03 May 2017 00:00
Orbit: 400 x 409 km, 51.6° (Epoch: 24 April)

Date Brightness Start Highest point End Pass type
(mag) Time Alt. Az. Time Alt. Az. Time Alt. Az.
23 Apr - 09:45:55 10° SSW 09:49:02 45° SE 09:52:09 10° ENE daylight
23 Apr - 11:22:58 10° W 11:25:38 23° NNW 11:28:18 10° NNE daylight
23 Apr - 14:39:20 10° NNW 14:40:44 12° NNE 14:42:09 10° NE daylight
23 Apr - 16:14:45 10° NW 16:17:53 42° NNE 16:21:01 10° ESE daylight
23 Apr - 17:51:47 10° W 17:54:09 19° SW 17:56:30 10° S daylight
24 Apr - 08:54:18 10° S 08:56:55 22° SE 08:59:32 10° E daylight
24 Apr - 10:30:12 10° W 10:33:15 36° NNW 10:36:18 10° NE daylight
24 Apr - 12:09:17 10° NW 12:10:28 11° NNW 12:11:39 10° N daylight
24 Apr - 13:47:45 10° N 13:48:09 10° N 13:48:33 10° NNE daylight
24 Apr - 15:22:43 10° NNW 15:25:30 26° NNE 15:28:18 10° E daylight
24 Apr - 16:59:01 10° WNW 17:02:03 36° SW 17:05:04 10° SSE daylight
25 Apr - 08:03:44 10° SSE 08:04:52 11° SE 08:06:00 10° ESE daylight
25 Apr - 09:37:42 10° WSW 09:40:56 68° NW 09:44:10 10° NE daylight
25 Apr - 11:15:58 10° NW 11:17:54 15° NNW 11:19:49 10° NNE daylight
25 Apr - 14:30:44 10° NNW 14:33:03 18° NNE 14:35:22 10° ENE daylight
25 Apr - 16:06:36 10° NW 16:09:51 77° SW 16:13:06 10° SE daylight
26 Apr - 08:45:29 10° SW 08:48:40 59° SE 08:51:53 10° ENE daylight
26 Apr - 10:22:53 10° WNW 10:25:22 20° NNW 10:27:53 10° NNE daylight
26 Apr - 13:38:50 10° NNW 13:40:30 13° NNE 13:42:10 10° NE daylight
26 Apr - 15:14:22 10° NW 15:17:34 53° NE 15:20:45 10° ESE daylight
26 Apr - 16:51:49 10° W 16:53:43 15° SW 16:55:37 10° SSW daylight
27 Apr - 07:53:39 10° SSW 07:56:30 28° SE 07:59:21 10° ENE daylight
27 Apr - 09:30:00 10° W 09:32:55 30° NNW 09:35:51 10° NE daylight
27 Apr - 11:09:20 10° NNW 11:10:12 11° N 11:11:04 10° N daylight
27 Apr - 12:47:03 10° N 12:47:53 11° N 12:48:44 10° NNE daylight
27 Apr - 14:22:15 10° NW 14:25:11 30° NNE 14:28:06 10° E daylight
27 Apr - 15:58:46 10° WNW 16:01:37 28° SW 16:04:28 10° SSE daylight
28 Apr - 07:02:29 10° SSE 07:04:22 15° SE 07:06:16 10° E daylight
28 Apr - 08:37:20 10° WSW 08:40:31 53° NW 08:43:43 10° NE daylight
28 Apr - 10:15:53 10° NW 10:17:35 13° NNW 10:19:16 10° NNE daylight
28 Apr - 13:30:13 10° NNW 13:32:43 20° NNE 13:35:12 10° ENE daylight
28 Apr - 15:06:12 10° WNW 15:09:25 59° SW 15:12:37 10° SE daylight
29 Apr - 07:44:58 10° SW 07:48:12 77° SE 07:51:27 10° NE daylight
29 Apr - 09:22:41 10° WNW 09:25:01 18° NNW 09:27:20 10° NNE daylight
29 Apr - 12:38:15 10° NNW 12:40:09 14° NNE 12:42:03 10° NE daylight
29 Apr - 14:13:53 10° NW 14:17:07 67° NE 14:20:21 10° ESE daylight
29 Apr - 15:52:01 10° WSW 15:53:11 12° SW 15:54:21 10° SSW daylight
30 Apr - 06:52:56 10° SSW 06:55:57 36° SE 06:58:59 10° ENE daylight
30 Apr - 08:29:40 10° W 08:32:29 26° NNW 08:35:17 10° NNE daylight
30 Apr - 10:09:24 10° NNW 10:09:50 10° N 10:10:18 10° N daylight
30 Apr - 11:46:21 10° N 11:47:31 11° NNE 11:48:41 10° NNE daylight
30 Apr - 13:21:41 10° NW 13:24:44 36° NNE 13:27:46 10° E daylight
30 Apr - 14:58:27 10° WNW 15:01:04 22° SW 15:03:41 10° S daylight
01 May - 06:01:26 10° S 06:03:46 18° SE 06:06:08 10° E daylight
01 May - 07:36:54 10° WSW 07:40:01 43° NNW 07:43:10 10° NE daylight
01 May - 09:15:44 10° NW 09:17:10 12° NNW 09:18:36 10° NNE daylight
01 May - 12:29:35 10° NNW 12:32:15 23° NNE 12:34:54 10° E daylight
01 May - 14:05:44 10° WNW 14:08:51 45° SW 14:11:58 10° SSE daylight
02 May - 06:44:23 10° SW 06:47:38 84° NW 06:50:55 10° NE daylight
02 May - 08:22:24 10° WNW 08:24:31 16° NNW 08:26:39 10° NNE daylight
02 May - 11:37:33 10° NNW 11:39:40 16° NNE 11:41:48 10° ENE daylight
02 May - 13:13:17 10° NW 13:16:33 85° NE 13:19:48 10° SE daylight
